�������l�o���
Date,Time,MP-1(��Sv/h),MP-2(��Sv/h),MP-3(��Sv/h),MP-4(��Sv/h),MP-5(��Sv/h),MP-6(��Sv/h),MP-7(��Sv/h),MP-8(��Sv/h),����,����(m/s),���J
2018/07/21,00:00,0.911,1.298,0.901,1.603,1.150,0.482,0.844,0.796,��,1.5,��
2018/07/21,00:10,0.911,1.297,0.900,1.605,1.149,0.481,0.844,0.796,��쓌,1.7,��
2018/07/21,00:20,0.912,1.296,0.901,1.607,1.149,0.481,0.845,0.796,��,0.9,��
2018/07/21,00:30,0.910,1.292,0.900,1.608,1.150,0.483,0.844,0.798,-,CALM,��
2018/07/21,00:40,0.909,1.298,0.900,1.607,1.149,0.482,0.844,0.798,-,CALM,��
2018/07/21,00:50,0.910,1.296,0.902,1.607,1.152,0.482,0.846,0.797,-,CALM,��
2018/07/21,01:00,0.910,1.299,0.903,1.604,1.149,0.483,0.845,0.799,-,CALM,��
2018/07/21,01:10,0.906,1.297,0.901,1.604,1.150,0.481,0.846,0.799,���쐼,0.9,��
2018/07/21,01:20,0.912,1.296,0.903,1.605,1.148,0.483,0.846,0.799,���쐼,0.9,��
2018/07/21,01:30,0.910,1.297,0.903,1.606,1.152,0.484,0.845,0.798,��쐼,0.9,��
2018/07/21,01:40,0.912,1.294,0.902,1.605,1.152,0.483,0.846,0.799,�쐼,0.9,��
2018/07/21,01:50,0.910,1.295,0.902,1.604,1.150,0.484,0.846,0.797,�쐼,0.8,��
2018/07/21,02:00,0.910,1.296,0.902,1.607,1.147,0.482,0.846,0.799,��쐼,1.2,��
2018/07/21,02:10,0.911,1.294,0.901,1.605,1.148,0.482,0.845,0.798,�쐼,1.2,��
2018/07/21,02:20,0.912,1.297,0.901,1.604,1.149,0.484,0.844,0.799,�쐼,1.2,��
2018/07/21,02:30,0.909,1.297,0.902,1.606,1.150,0.484,0.846,0.799,��쐼,0.9,��
2018/07/21,02:40,0.910,1.300,0.901,1.608,1.150,0.484,0.845,0.798,��쐼,1.4,��
2018/07/21,02:50,0.911,1.296,0.902,1.603,1.150,0.484,0.846,0.798,��쐼,1.7,��
2018/07/21,03:00,0.911,1.297,0.901,1.605,1.151,0.485,0.845,0.799,��쐼,1.7,��
2018/07/21,03:10,0.913,1.295,0.902,1.605,1.148,0.484,0.846,0.801,�쐼,1.9,��
2018/07/21,03:20,0.909,1.296,0.901,1.607,1.150,0.483,0.846,0.799,��쐼,1.9,��
2018/07/21,03:30,0.911,1.296,0.903,1.607,1.146,0.484,0.846,0.799,��쐼,1.7,��
2018/07/21,03:40,0.911,1.296,0.902,1.607,1.148,0.483,0.845,0.799,��쐼,0.9,��
2018/07/21,03:50,0.911,1.299,0.902,1.606,1.151,0.482,0.844,0.798,��쐼,0.9,��
2018/07/21,04:00,0.911,1.296,0.903,1.606,1.150,0.484,0.845,0.797,-,CALM,��
2018/07/21,04:10,0.911,1.294,0.903,1.604,1.148,0.485,0.844,0.797,�k�k��,0.6,��
2018/07/21,04:20,0.912,1.298,0.902,1.604,1.148,0.484,0.846,0.799,�k�k��,1.5,��
2018/07/21,04:30,0.909,1.296,0.903,1.607,1.150,0.485,0.845,0.798,�k��,2.0,��
2018/07/21,04:40,0.911,1.297,0.902,1.607,1.151,0.484,0.845,0.799,�k��,2.5,��
2018/07/21,04:50,0.910,1.299,0.903,1.605,1.149,0.484,0.844,0.798,�k��,3.1,��
2018/07/21,05:00,0.912,1.297,0.902,1.607,1.149,0.483,0.846,0.799,�k��,3.6,��
2018/07/21,05:10,0.909,1.298,0.903,1.605,1.149,0.484,0.844,0.800,�k��,3.8,��
2018/07/21,05:20,0.909,1.297,0.901,1.607,1.151,0.483,0.846,0.799,�k��,4.0,��
2018/07/21,05:30,0.909,1.296,0.904,1.606,1.150,0.485,0.845,0.797,�k��,3.1,��
2018/07/21,05:40,0.910,1.297,0.900,1.606,1.149,0.484,0.845,0.798,�k�k��,2.6,��
2018/07/21,05:50,0.911,1.297,0.902,1.604,1.149,0.483,0.845,0.800,�k��,2.6,��
2018/07/21,06:00,0.908,1.298,0.901,1.606,1.151,0.483,0.845,0.798,��,2.0,��
2018/07/21,06:10,0.910,1.296,0.901,1.607,1.145,0.485,0.847,0.799,��,2.2,��
2018/07/21,06:20,0.909,1.294,0.902,1.606,1.148,0.484,0.846,0.797,���k��,2.3,��
2018/07/21,06:30,0.907,1.296,0.904,1.604,1.149,0.483,0.846,0.798,���쐼,2.2,��
2018/07/21,06:40,0.909,1.297,0.902,1.610,1.151,0.486,0.847,0.797,���쐼,2.0,��
2018/07/21,06:50,0.911,1.295,0.903,1.606,1.148,0.484,0.848,0.798,��,2.3,��
2018/07/21,07:00,0.910,1.297,0.902,1.608,1.150,0.485,0.846,0.799,��,2.3,��
2018/07/21,07:10,0.910,1.295,0.902,1.606,1.148,0.485,0.847,0.800,���쐼,2.0,��
2018/07/21,07:20,0.912,1.299,0.904,1.604,1.150,0.482,0.848,0.799,��쐼,3.4,��
2018/07/21,07:30,0.913,1.295,0.902,1.603,1.151,0.484,0.847,0.798,��쐼,3.2,��
2018/07/21,07:40,0.914,1.297,0.904,1.604,1.148,0.483,0.846,0.799,��,2.8,��
2018/07/21,07:50,0.913,1.295,0.903,1.605,1.151,0.486,0.847,0.797,�쐼,1.5,��
2018/07/21,08:00,0.913,1.294,0.902,1.605,1.150,0.484,0.847,0.800,�쐼,2.0,��
2018/07/21,08:10,0.914,1.296,0.903,1.608,1.149,0.484,0.847,0.799,��쐼,2.5,��
2018/07/21,08:20,0.914,1.297,0.902,1.605,1.152,0.485,0.847,0.800,�쐼,1.7,��
2018/07/21,08:30,0.913,1.296,0.903,1.608,1.151,0.486,0.847,0.800,�쐼,1.4,��
2018/07/21,08:40,0.912,1.295,0.902,1.609,1.149,0.484,0.847,0.798,��,1.7,��
2018/07/21,08:50,0.914,1.296,0.903,1.609,1.152,0.485,0.847,0.795,��,1.5,��
2018/07/21,09:00,0.911,1.296,0.903,1.607,1.152,0.486,0.848,0.798,��쓌,1.5,��
2018/07/21,09:10,0.913,1.298,0.902,1.609,1.152,0.485,0.849,0.797,��,0.9,��
2018/07/21,09:20,0.915,1.294,0.904,1.608,1.151,0.484,0.848,0.799,�쓌,1.2,��
2018/07/21,09:30,0.912,1.293,0.904,1.608,1.153,0.485,0.846,0.796,��쓌,1.5,��
2018/07/21,09:40,0.910,1.295,0.904,1.604,1.151,0.482,0.846,0.797,��쓌,2.0,��
2018/07/21,09:50,0.912,1.297,0.901,1.607,1.151,0.483,0.846,0.795,��쓌,3.0,��
2018/07/21,10:00,0.914,1.297,0.902,1.608,1.150,0.483,0.847,0.795,��쓌,2.9,��
2018/07/21,10:10,0.914,1.294,0.903,1.610,1.153,0.484,0.845,0.796,��쓌,3.1,��
2018/07/21,10:20,0.914,1.298,0.903,1.606,1.154,0.484,0.846,0.797,��쓌,3.5,��
2018/07/21,10:30,0.913,1.302,0.901,1.608,1.155,0.483,0.848,0.797,��쓌,4.1,��
2018/07/21,10:40,0.912,1.300,0.902,1.611,1.156,0.484,0.848,0.799,��쓌,2.8,��
2018/07/21,10:50,0.914,1.299,0.904,1.608,1.154,0.483,0.847,0.796,��쓌,2.0,��
2018/07/21,11:00,0.913,1.298,0.902,1.606,1.153,0.483,0.845,0.797,��쓌,3.9,��
2018/07/21,11:10,0.915,1.297,0.903,1.608,1.153,0.483,0.846,0.798,��쓌,3.9,��
2018/07/21,11:20,0.915,1.304,0.907,1.604,1.154,0.484,0.847,0.799,�쓌,3.5,��
2018/07/21,11:30,0.914,1.301,0.905,1.604,1.157,0.484,0.848,0.798,��쓌,4.3,��
2018/07/21,11:40,0.914,1.302,0.905,1.609,1.157,0.485,0.848,0.799,��쓌,4.6,��
2018/07/21,11:50,0.914,1.305,0.906,1.608,1.157,0.486,0.846,0.797,�쓌,4.4,��
2018/07/21,12:00,0.915,1.304,0.907,1.607,1.156,0.486,0.847,0.798,��쓌,4.7,��
2018/07/21,12:10,0.913,1.302,0.908,1.608,1.159,0.483,0.847,0.798,��쓌,4.6,��
2018/07/21,12:20,0.916,1.303,0.907,1.611,1.159,0.485,0.846,0.798,��쓌,4.6,��
2018/07/21,12:30,0.912,1.303,0.906,1.609,1.162,0.487,0.847,0.798,��쓌,5.1,��
2018/07/21,12:40,0.915,1.304,0.908,1.608,1.159,0.486,0.847,0.798,��쓌,4.4,��
2018/07/21,12:50,0.915,1.304,0.907,1.610,1.162,0.484,0.849,0.798,��쓌,4.9,��
2018/07/21,13:00,0.915,1.305,0.908,1.610,1.160,0.487,0.848,0.798,��쓌,5.0,��
2018/07/21,13:10,0.916,1.300,0.907,1.610,1.156,0.485,0.849,0.797,��쓌,6.2,��
2018/07/21,13:20,0.917,1.301,0.905,1.614,1.159,0.485,0.850,0.798,��쓌,5.4,��
2018/07/21,13:30,0.917,1.302,0.905,1.612,1.159,0.484,0.851,0.800,��,4.5,��
2018/07/21,13:40,0.917,1.300,0.905,1.609,1.160,0.484,0.851,0.799,��,4.7,��
2018/07/21,13:50,0.920,1.301,0.906,1.612,1.159,0.483,0.851,0.800,��,3.5,��
2018/07/21,14:00,0.920,1.302,0.907,1.615,1.163,0.483,0.850,0.802,��,3.0,��
2018/07/21,14:10,0.920,1.304,0.905,1.613,1.159,0.485,0.851,0.799,��,3.4,��
2018/07/21,14:20,0.918,1.302,0.907,1.616,1.162,0.484,0.852,0.802,��쓌,3.8,��
2018/07/21,14:30,0.919,1.304,0.908,1.614,1.159,0.484,0.854,0.803,��,3.2,��
2018/07/21,14:40,0.918,1.304,0.907,1.614,1.161,0.483,0.851,0.801,��,2.6,��
2018/07/21,14:50,0.916,1.306,0.906,1.615,1.162,0.484,0.851,0.804,��,2.9,��
2018/07/21,15:00,0.917,1.306,0.905,1.614,1.160,0.485,0.851,0.799,��쓌,3.0,��
2018/07/21,15:10,0.916,1.304,0.908,1.617,1.161,0.484,0.848,0.800,��쓌,3.6,��
2018/07/21,15:20,0.916,1.303,0.905,1.614,1.160,0.482,0.850,0.800,��쓌,4.1,��
2018/07/21,15:30,0.918,1.304,0.906,1.614,1.160,0.483,0.849,0.800,��쓌,4.2,��
2018/07/21,15:40,0.916,1.305,0.905,1.616,1.160,0.482,0.848,0.802,��쓌,4.2,��
2018/07/21,15:50,0.914,1.304,0.905,1.616,1.161,0.485,0.848,0.800,��쓌,4.0,��
2018/07/21,16:00,0.914,1.304,0.904,1.612,1.158,0.484,0.847,0.800,��,2.3,��
2018/07/21,16:10,0.917,1.301,0.906,1.614,1.161,0.482,0.849,0.798,��,3.7,��
2018/07/21,16:20,0.915,1.305,0.907,1.612,1.159,0.483,0.849,0.802,��,3.2,��
2018/07/21,16:30,0.918,1.304,0.904,1.613,1.157,0.484,0.849,0.799,��,3.4,��
2018/07/21,16:40,0.917,1.303,0.905,1.614,1.160,0.483,0.849,0.797,��쐼,2.3,��
2018/07/21,16:50,0.916,1.305,0.908,1.614,1.160,0.482,0.849,0.798,��쐼,1.7,��
2018/07/21,17:00,0.915,1.305,0.905,1.613,1.159,0.484,0.849,0.800,��,1.5,��
2018/07/21,17:10,0.916,1.303,0.905,1.613,1.159,0.484,0.847,0.800,��쐼,1.1,��
2018/07/21,17:20,0.915,1.302,0.905,1.615,1.158,0.482,0.849,0.798,��,0.8,��
2018/07/21,17:30,0.913,1.303,0.906,1.614,1.159,0.485,0.848,0.798,��,0.8,��
2018/07/21,17:40,0.914,1.303,0.904,1.616,1.157,0.481,0.847,0.796,�쐼,0.6,��
2018/07/21,17:50,0.914,1.301,0.905,1.611,1.158,0.481,0.846,0.799,���쐼,0.9,��
2018/07/21,18:00,0.914,1.304,0.905,1.612,1.159,0.483,0.849,0.798,�쐼,0.6,��
2018/07/21,18:10,0.913,1.303,0.907,1.611,1.159,0.483,0.848,0.798,�쐼,0.9,��
2018/07/21,18:20,0.914,1.303,0.906,1.613,1.157,0.484,0.849,0.799,���쐼,0.9,��
2018/07/21,18:30,0.915,1.301,0.908,1.610,1.156,0.483,0.848,0.799,��,0.9,��
2018/07/21,18:40,0.916,1.306,0.906,1.613,1.157,0.484,0.848,0.799,��,1.2,��
2018/07/21,18:50,0.915,1.301,0.905,1.614,1.158,0.483,0.848,0.798,��,0.8,��
2018/07/21,19:00,0.916,1.302,0.905,1.614,1.157,0.482,0.850,0.801,���k��,1.9,��
2018/07/21,19:10,0.916,1.299,0.904,1.616,1.159,0.484,0.849,0.799,���k��,2.5,��
2018/07/21,19:20,0.916,1.299,0.904,1.615,1.158,0.484,0.850,0.800,���k��,1.7,��
2018/07/21,19:30,0.917,1.303,0.905,1.615,1.157,0.484,0.850,0.800,�k��,3.5,��
2018/07/21,19:40,0.917,1.301,0.904,1.615,1.159,0.484,0.850,0.800,�k��,3.2,��
2018/07/21,19:50,0.919,1.303,0.906,1.615,1.156,0.484,0.849,0.800,���k��,3.2,��
2018/07/21,20:00,0.916,1.302,0.906,1.615,1.157,0.484,0.848,0.798,���k��,3.9,��
2018/07/21,20:10,0.917,1.302,0.907,1.614,1.156,0.484,0.849,0.801,���k��,3.5,��
2018/07/21,20:20,0.915,1.305,0.904,1.614,1.157,0.482,0.849,0.801,���k��,3.6,��
2018/07/21,20:30,0.915,1.302,0.905,1.616,1.157,0.483,0.849,0.799,���k��,3.1,��
2018/07/21,20:40,0.916,1.300,0.905,1.613,1.157,0.484,0.848,0.800,��,4.3,��
2018/07/21,20:50,0.915,1.304,0.907,1.612,1.155,0.484,0.848,0.801,���k��,3.9,��
2018/07/21,21:00,0.914,1.303,0.906,1.613,1.157,0.484,0.848,0.799,��,3.8,��
2018/07/21,21:10,0.916,1.300,0.907,1.614,1.158,0.482,0.848,0.801,��,3.5,��
2018/07/21,21:20,0.914,1.304,0.907,1.614,1.158,0.482,0.848,0.800,��,3.9,��
2018/07/21,21:30,0.916,1.305,0.906,1.612,1.159,0.482,0.847,0.798,��,4.5,��
2018/07/21,21:40,0.916,1.303,0.906,1.613,1.157,0.483,0.847,0.800,��,4.8,��
2018/07/21,21:50,0.917,1.302,0.906,1.613,1.158,0.482,0.849,0.800,��,5.4,��
2018/07/21,22:00,0.917,1.302,0.905,1.615,1.157,0.483,0.848,0.800,���k��,5.8,��
2018/07/21,22:10,0.914,1.302,0.906,1.612,1.157,0.483,0.849,0.799,���k��,5.6,��
2018/07/21,22:20,0.917,1.301,0.907,1.617,1.157,0.483,0.850,0.801,���k��,5.6,��
2018/07/21,22:30,0.916,1.303,0.906,1.614,1.159,0.484,0.849,0.800,���k��,3.7,��
2018/07/21,22:40,0.915,1.300,0.906,1.612,1.153,0.484,0.850,0.800,��,2.3,��
2018/07/21,22:50,0.916,1.302,0.906,1.614,1.156,0.483,0.849,0.800,���k��,2.5,��
2018/07/21,23:00,0.916,1.304,0.907,1.616,1.154,0.483,0.848,0.800,���k��,2.5,��
2018/07/21,23:10,0.916,1.303,0.907,1.616,1.158,0.481,0.847,0.801,���k��,2.0,��
2018/07/21,23:20,0.916,1.303,0.906,1.613,1.153,0.483,0.847,0.799,���k��,2.6,��
2018/07/21,23:30,0.916,1.302,0.908,1.614,1.155,0.484,0.849,0.801,�k��,2.0,��
2018/07/21,23:40,0.914,1.300,0.908,1.616,1.155,0.484,0.848,0.799,�k��,3.8,��
2018/07/21,23:50,0.915,1.300,0.905,1.614,1.157,0.484,0.848,0.800,���k��,4.0,��
